Location: Oberwangen
(47.4286°N, 8.9679°E)
Time: 23:18:26
(UTC+00:00)

Cosmos 2360 Rocket - Visible Passes

Search period start: 15 October 2021 00:00
Search period end: 25 October 2021 00:00
Orbit: 832 x 846 km, 71.0° (Epoch: 15 October)

Date Brightness Start Highest point End Pass type
(mag) Time Alt. Az. Time Alt. Az. Time Alt. Az.
15 Oct 4.3 04:00:24 10° N 04:04:59 24° NE 04:09:32 10° E visible
16 Oct 4.4 03:44:42 10° N 03:49:11 23° NE 03:53:38 10° E visible
17 Oct 4.4 03:28:59 10° N 03:33:22 22° NE 03:37:44 10° E visible
17 Oct 2.2 05:12:21 10° NNW 05:18:04 81° WSW 05:23:44 10° SSE visible
18 Oct 4.5 03:13:16 10° N 03:17:33 21° NE 03:21:49 10° E visible
18 Oct 2.2 04:56:35 10° NNW 05:02:19 86° WSW 05:07:59 10° SSE visible
19 Oct 4.5 02:57:33 10° N 03:01:43 20° NE 03:05:53 10° E visible
19 Oct 2.2 04:40:49 10° NNW 04:46:33 90° ENE 04:52:14 10° SSE visible
19 Oct 4.5 19:34:36 10° SSW 19:35:09 13° SSW 19:35:09 13° SSW visible
20 Oct 4.6 02:41:51 10° N 02:45:55 19° NE 02:49:57 10° E visible
20 Oct 2.2 04:25:04 10° NNW 04:30:47 85° ENE 04:36:28 10° SSE visible
20 Oct 3.8 17:38:06 10° SE 17:39:48 14° ESE 17:39:48 14° ESE visible
20 Oct 3.4 19:18:51 10° SSW 19:21:41 31° SSW 19:21:41 31° SSW visible
21 Oct 4.6 02:26:09 10° N 02:30:06 19° NE 02:34:01 10° E visible
21 Oct 2.3 04:09:19 10° NNW 04:15:02 81° ENE 04:20:42 10° SSE visible
21 Oct 3.7 17:22:38 10° SE 17:25:36 15° E 17:26:16 14° E visible
21 Oct 2.2 19:03:05 10° SSW 19:08:09 73° SSW 19:08:09 73° SSW visible
21 Oct 4.9 20:49:22 10° W 20:50:02 12° W 20:50:02 12° W visible
22 Oct 4.6 02:10:27 10° N 02:14:16 18° NE 02:18:04 10° E visible
22 Oct 2.3 03:53:33 10° NNW 03:59:16 77° ENE 04:04:56 10° SSE visible
22 Oct 3.8 17:07:14 10° SE 17:09:54 14° E 17:12:33 10° ENE visible
22 Oct 2.0 18:47:20 10° SSW 18:52:59 84° ESE 18:54:25 52° NNE visible
22 Oct 4.5 20:33:27 10° W 20:36:17 20° WNW 20:36:17 20° WNW visible
23 Oct 4.7 01:55:20 12° N 01:58:26 17° NE 02:02:06 10° E visible
23 Oct 2.4 03:37:47 10° NNW 03:43:30 73° ENE 03:49:09 10° SE visible
23 Oct 3.5 05:22:56 10° NW 05:26:52 20° W 05:30:48 10° SW visible
23 Oct 3.8 16:51:52 10° ESE 16:54:12 13° E 16:56:32 10° ENE visible
23 Oct 2.0 18:31:35 10° SSW 18:37:13 80° ESE 18:40:24 27° NNE visible
23 Oct 4.3 20:17:32 10° W 20:21:54 22° NW 20:22:15 22° NW visible
24 Oct 4.7 01:41:21 15° NNE 01:42:37 16° NE 01:46:09 10° ENE visible
24 Oct 2.4 03:23:13 17° NNW 03:27:44 69° ENE 03:33:22 10° SE visible
24 Oct 3.4 05:07:03 10° NW 05:11:09 21° W 05:15:15 10° SSW visible
24 Oct 2.1 18:15:50 10° SSW 18:21:28 75° ESE 18:26:04 16° NNE visible
24 Oct 4.2 20:01:37 10° W 20:06:06 23° NW 20:07:54 20° NNW visible
